PRAETORIAN SDA_616

Last updated on Sat Jun 27 2026 00:03:47 GMT+0000 (Coordinated Universal Time)

1 65579U 25203Q 26177.74818095 .00000203 00000+0 17396-3 0 9992 2 65579 81.3061 2.2378 0005780 166.0786 194.0530 13.83268927 40004
UTC large
Height (km)
Speed (km/s)
/
Latitude / Longitude
Inclination (degrees)
Orbital Period (minutes)
Azimuth
Elevation
Range (km)
Doppler Factor

Next 0 passes for location: London (51.5072 / 0.1276)

No passes found over London.
PRAETORIAN SDA_616